When you browse on this site, cookies collect data to enhance your experience and personalize the content and advertising you see.
Visit our Privacy Policy to learn more. By continuing to use the site, you agree to this use of cookies and data.
  • In Romania
  • List of Countries
  • For 7 days
  • Water Temperature
  • Satellite Maps
  • Weather Map
  • Weather Widgets
  • user-avatar
    Login

    Hourly Weather Atlantic City

    Today, 20 February, Wednesday

    Time Temperature Precipitation Wind Pressure Humidity
    00:00 -1°C° 0 mm 2 mps 777 mmHg 41%
    01:00 -1°C° 0 mm 2 mps 777 mmHg 42%
    02:00 -1°C° 0 mm 2 mps 777 mmHg 43%
    03:00 -1°C° 0 mm 2 mps 776 mmHg 44%
    04:00 -1°C° 0 mm 2 mps 776 mmHg 45%
    05:00 -1°C° 0 mm 3 mps 776 mmHg 46%
    06:00 -1°C° 0 mm 3 mps 776 mmHg 47%
    07:00 -1°C° 0 mm 3 mps 775 mmHg 48%
    08:00 0°C° 0.1 mm 3 mps 776 mmHg 50%
    09:00 0°C° 0.1 mm 3 mps 776 mmHg 51%
    10:00 0°C° 0.1 mm 3 mps 776 mmHg 53%
    11:00 -1°C° 1.1 mm 4 mps 776 mmHg 64%
    12:00 -1°C° 1.1 mm 4 mps 775 mmHg 75%
    13:00 -1°C° 1.1 mm 5 mps 774 mmHg 86%
    14:00 0°C° 0.6 mm 5 mps 773 mmHg 87%
    15:00 0°C° 0.6 mm 5 mps 772 mmHg 88%
    16:00 0°C° 0.6 mm 5 mps 771 mmHg 89%
    17:00 +1°C° 0.9 mm 5 mps 770 mmHg 91%
    18:00 +1°C° 0.9 mm 5 mps 769 mmHg 93%
    19:00 +2°C° 0.9 mm 5 mps 768 mmHg 94%
    20:00 +3°C° 0.8 mm 6 mps 767 mmHg 95%
    21:00 +4°C° 0.8 mm 6 mps 766 mmHg 96%
    22:00 +5°C° 0.8 mm 7 mps 764 mmHg 96%
    23:00 +6°C° 1 mm 7 mps 763 mmHg 97%

    Tomorrow, 21 February, Thursday

    Time Temperature Precipitation Wind Pressure Humidity
    00:00 +6°C° 1 mm 7 mps 762 mmHg 98%
    01:00 +7°C° 1 mm 6 mps 761 mmHg 98%
    02:00 +7°C° 0.4 mm 6 mps 761 mmHg 98%
    03:00 +7°C° 0.4 mm 6 mps 760 mmHg 98%
    04:00 +7°C° 0.4 mm 5 mps 760 mmHg 97%
    05:00 +7°C° 0 mm 5 mps 760 mmHg 97%
    06:00 +7°C° 0 mm 6 mps 760 mmHg 96%
    07:00 +7°C° 0 mm 6 mps 760 mmHg 96%
    08:00 +7°C° 0 mm 6 mps 760 mmHg 95%
    09:00 +8°C° 0 mm 6 mps 761 mmHg 94%
    10:00 +8°C° 0 mm 6 mps 761 mmHg 93%
    11:00 +9°C° 0 mm 6 mps 761 mmHg 85%
    12:00 +9°C° 0 mm 6 mps 761 mmHg 76%
    13:00 +10°C° 0 mm 6 mps 761 mmHg 67%
    14:00 +10°C° 0 mm 6 mps 762 mmHg 65%
    15:00 +9°C° 0 mm 6 mps 762 mmHg 63%
    16:00 +9°C° 0 mm 6 mps 762 mmHg 61%
    17:00 +7°C° 0 mm 6 mps 763 mmHg 65%
    18:00 +5°C° 0 mm 6 mps 764 mmHg 69%
    19:00 +5°C° 0 mm 5 mps 764 mmHg 74%
    20:00 +3°C° 0 mm 5 mps 765 mmHg 75%
    21:00 +3°C° 0 mm 5 mps 766 mmHg 76%
    22:00 +3°C° 0 mm 4 mps 766 mmHg 77%
    23:00 +2°C° 0 mm 5 mps 767 mmHg 76%

    Day after tomorrow, 22 February, Friday

    Time Temperature Precipitation Wind Pressure Humidity
    00:00 +2°C° 0 mm 5 mps 767 mmHg 76%
    01:00 +2°C° 0 mm 6 mps 768 mmHg 75%
    02:00 +2°C° 0 mm 5 mps 768 mmHg 76%
    03:00 +1°C° 0 mm 5 mps 768 mmHg 77%
    04:00 0°C° 0 mm 5 mps 768 mmHg 78%
    05:00 0°C° 0 mm 4 mps 769 mmHg 78%
    06:00 0°C° 0 mm 4 mps 769 mmHg 78%
    07:00 0°C° 0 mm 4 mps 770 mmHg 78%
    08:00 +1°C° 0 mm 4 mps 770 mmHg 73%
    09:00 +3°C° 0 mm 4 mps 771 mmHg 68%
    10:00 +4°C° 0 mm 3 mps 772 mmHg 63%
    11:00 +5°C° 0 mm 3 mps 772 mmHg 60%
    12:00 +7°C° 0 mm 2 mps 772 mmHg 57%
    13:00 +8°C° 0 mm 2 mps 772 mmHg 54%
    14:00 +9°C° 0 mm 1 mps 772 mmHg 56%
    15:00 +8°C° 0 mm 1 mps 772 mmHg 57%
    16:00 +8°C° 0 mm 1 mps 772 mmHg 59%
    17:00 +8°C° 0 mm 1 mps 772 mmHg 63%
    18:00 +7°C° 0 mm 1 mps 773 mmHg 66%
    19:00 +6°C° 0 mm 1 mps 773 mmHg 69%
    20:00 +6°C° 0 mm 1 mps 773 mmHg 70%
    21:00 +6°C° 0 mm 1 mps 773 mmHg 71%
    22:00 +5°C° 0 mm 1 mps 774 mmHg 72%
    23:00 +5°C° 0 mm 1 mps 774 mmHg 73%

    23 February, Saturday

    Time Temperature Precipitation Wind Pressure Humidity
    00:00 +4°C° 0 mm 2 mps 773 mmHg 75%
    01:00 +4°C° 0 mm 2 mps 773 mmHg 76%
    02:00 +3°C° 0 mm 2 mps 773 mmHg 76%
    03:00 +3°C° 0 mm 2 mps 773 mmHg 76%
    04:00 +2°C° 0 mm 3 mps 773 mmHg 77%
    05:00 +2°C° 0 mm 3 mps 773 mmHg 79%
    06:00 +3°C° 0 mm 2 mps 773 mmHg 81%
    07:00 +3°C° 0 mm 2 mps 773 mmHg 84%
    08:00 +3°C° 0 mm 3 mps 773 mmHg 79%
    09:00 +5°C° 0 mm 3 mps 773 mmHg 74%
    10:00 +7°C° 0 mm 3 mps 773 mmHg 69%
    11:00 +7°C° 0.1 mm 3 mps 772 mmHg 69%
    12:00 +7°C° 0.1 mm 3 mps 771 mmHg 70%
    13:00 +7°C° 0.1 mm 3 mps 771 mmHg 71%
    14:00 +5°C° 0.5 mm 3 mps 770 mmHg 77%
    15:00 +6°C° 0.5 mm 2 mps 769 mmHg 83%
    16:00 +5°C° 0.5 mm 2 mps 768 mmHg 90%
    17:00 +5°C° 0.8 mm 3 mps 767 mmHg 92%
    18:00 +5°C° 0.8 mm 4 mps 766 mmHg 94%
    19:00 +5°C° 0.8 mm 5 mps 766 mmHg 96%
    20:00 +6°C° 1.1 mm 5 mps 764 mmHg 96%
    21:00 +7°C° 1.1 mm 6 mps 763 mmHg 97%
    22:00 +8°C° 1.1 mm 6 mps 762 mmHg 97%
    23:00 +8°C° 1.9 mm 7 mps 760 mmHg 97%

    24 February, Sunday

    Time Temperature Precipitation Wind Pressure Humidity
    00:00 +9°C° 1.9 mm 7 mps 759 mmHg 97%
    01:00 +9°C° 1.9 mm 7 mps 757 mmHg 97%
    02:00 +10°C° 0.8 mm 7 mps 756 mmHg 96%
    03:00 +11°C° 0.8 mm 7 mps 755 mmHg 96%
    04:00 +11°C° 0.8 mm 8 mps 754 mmHg 96%
    05:00 +11°C° 1 mm 7 mps 753 mmHg 96%
    06:00 +12°C° 1 mm 7 mps 753 mmHg 96%
    07:00 +12°C° 1 mm 7 mps 752 mmHg 96%
    08:00 +13°C° 0.3 mm 8 mps 751 mmHg 95%
    09:00 +13°C° 0.3 mm 9 mps 750 mmHg 93%
    10:00 +14°C° 0.3 mm 10 mps 749 mmHg 92%
    11:00 +16°C° 0.1 mm 10 mps 749 mmHg 80%
    12:00 +17°C° 0.1 mm 10 mps 748 mmHg 68%
    13:00 +18°C° 0.1 mm 10 mps 748 mmHg 57%
    14:00 +17°C° 0 mm 10 mps 748 mmHg 53%
    15:00 +16°C° 0 mm 10 mps 748 mmHg 50%
    16:00 +13°C° 0 mm 10 mps 749 mmHg 47%
    17:00 +12°C° 0 mm 10 mps 750 mmHg 50%
    18:00 +9°C° 0 mm 10 mps 751 mmHg 54%
    19:00 +7°C° 0 mm 10 mps 752 mmHg 57%
    20:00 +7°C° 0 mm 11 mps 752 mmHg 57%
    21:00 +6°C° 0 mm 11 mps 753 mmHg 57%
    22:00 +4°C° 0 mm 11 mps 753 mmHg 57%
    23:00 +4°C° 0 mm 11 mps 754 mmHg 57%

    25 February, Monday

    Time Temperature Precipitation Wind Pressure Humidity
    00:00 +3°C° 0 mm 11 mps 754 mmHg 57%
    01:00 +3°C° 0 mm 11 mps 755 mmHg 57%
    02:00 +2°C° 0 mm 11 mps 755 mmHg 55%
    03:00 +2°C° 0 mm 12 mps 756 mmHg 54%
    04:00 0°C° 0 mm 12 mps 757 mmHg 53%
    05:00 -1°C° 0 mm 12 mps 758 mmHg 53%
    06:00 -1°C° 0 mm 12 mps 759 mmHg 53%
    07:00 -2°C° 0 mm 12 mps 760 mmHg 53%
    08:00 -1°C° 0 mm 12 mps 761 mmHg 50%
    09:00 -1°C° 0 mm 12 mps 762 mmHg 47%
    10:00 0°C° 0 mm 12 mps 763 mmHg 44%
    11:00 0°C° 0 mm 12 mps 764 mmHg 41%
    12:00 +2°C° 0 mm 12 mps 764 mmHg 39%
    13:00 +3°C° 0 mm 12 mps 765 mmHg 36%
    14:00 +2°C° 0 mm 11 mps 766 mmHg 36%
    15:00 +2°C° 0 mm 10 mps 766 mmHg 36%
    16:00 +2°C° 0 mm 10 mps 767 mmHg 37%
    17:00 +1°C° 0 mm 9 mps 768 mmHg 40%
    18:00 0°C° 0 mm 8 mps 769 mmHg 43%
    19:00 -1°C° 0 mm 8 mps 770 mmHg 47%
    20:00 -2°C° 0 mm 7 mps 771 mmHg 48%
    21:00 -2°C° 0 mm 7 mps 772 mmHg 50%
    22:00 -3°C° 0 mm 7 mps 772 mmHg 51%
    23:00 -3°C° 0 mm 7 mps 773 mmHg 51%
    Show more